#datetime,building,power
2022-05-13T00:00:00,sdl,14.49
2022-05-13T00:01:00,sdl,14.56
2022-05-13T00:02:00,sdl,14.55
2022-05-13T00:03:00,sdl,14.65
2022-05-13T00:04:00,sdl,14.61
2022-05-13T00:05:00,sdl,14.64
2022-05-13T00:06:00,sdl,14.67
2022-05-13T00:07:00,sdl,14.71
2022-05-13T00:08:00,sdl,14.61
2022-05-13T00:09:00,sdl,14.55
2022-05-13T00:10:00,sdl,14.44
2022-05-13T00:11:00,sdl,14.59
2022-05-13T00:12:00,sdl,16.98
2022-05-13T00:13:00,sdl,16.82
2022-05-13T00:14:00,sdl,16.82
2022-05-13T00:15:00,sdl,16.89
2022-05-13T00:16:00,sdl,17.91
2022-05-13T00:17:00,sdl,16.77
2022-05-13T00:18:00,sdl,17.36
2022-05-13T00:19:00,sdl,17.33
2022-05-13T00:20:00,sdl,16.94
2022-05-13T00:21:00,sdl,14.63
2022-05-13T00:22:00,sdl,14.66
2022-05-13T00:23:00,sdl,14.66
2022-05-13T00:24:00,sdl,14.64
2022-05-13T00:25:00,sdl,14.61
2022-05-13T00:26:00,sdl,14.69
2022-05-13T00:27:00,sdl,15.14
2022-05-13T00:28:00,sdl,15.08
2022-05-13T00:29:00,sdl,15.03
2022-05-13T00:30:00,sdl,15.08
2022-05-13T00:31:00,sdl,15.12
2022-05-13T00:32:00,sdl,15.18
2022-05-13T00:33:00,sdl,14.95
2022-05-13T00:34:00,sdl,15.11
2022-05-13T00:35:00,sdl,15.07
2022-05-13T00:36:00,sdl,15.02
2022-05-13T00:37:00,sdl,14.99
2022-05-13T00:38:00,sdl,14.98
2022-05-13T00:39:00,sdl,15.03
2022-05-13T00:40:00,sdl,15.05
2022-05-13T00:41:00,sdl,15.05
2022-05-13T00:42:00,sdl,15.05
2022-05-13T00:43:00,sdl,17.23
2022-05-13T00:44:00,sdl,17.19
2022-05-13T00:45:00,sdl,17.32
2022-05-13T00:46:00,sdl,17.16
2022-05-13T00:47:00,sdl,17.16
2022-05-13T00:48:00,sdl,17.20
2022-05-13T00:49:00,sdl,17.18
2022-05-13T00:50:00,sdl,17.25
2022-05-13T00:51:00,sdl,18.25
2022-05-13T00:52:00,sdl,17.26
2022-05-13T00:53:00,sdl,17.22
2022-05-13T00:54:00,sdl,17.31
2022-05-13T00:55:00,sdl,17.28
2022-05-13T00:56:00,sdl,17.35
2022-05-13T00:57:00,sdl,17.74
2022-05-13T00:58:00,sdl,17.70
2022-05-13T00:59:00,sdl,14.99
2022-05-13T01:00:00,sdl,14.97
2022-05-13T01:01:00,sdl,14.69
2022-05-13T01:02:00,sdl,14.78
2022-05-13T01:03:00,sdl,14.56
2022-05-13T01:04:00,sdl,14.56
2022-05-13T01:05:00,sdl,14.46
2022-05-13T01:06:00,sdl,14.64
2022-05-13T01:07:00,sdl,14.51
2022-05-13T01:08:00,sdl,15.62
2022-05-13T01:09:00,sdl,14.57
2022-05-13T01:10:00,sdl,14.56
2022-05-13T01:11:00,sdl,14.67
2022-05-13T01:12:00,sdl,14.74
2022-05-13T01:13:00,sdl,14.67
2022-05-13T01:14:00,sdl,14.70
2022-05-13T01:15:00,sdl,14.63
2022-05-13T01:16:00,sdl,14.57
2022-05-13T01:17:00,sdl,14.52
2022-05-13T01:18:00,sdl,14.51
2022-05-13T01:19:00,sdl,14.41
2022-05-13T01:20:00,sdl,14.57
2022-05-13T01:21:00,sdl,14.64
2022-05-13T01:22:00,sdl,14.68
2022-05-13T01:23:00,sdl,14.65
2022-05-13T01:24:00,sdl,15.34
2022-05-13T01:25:00,sdl,15.53
2022-05-13T01:26:00,sdl,16.58
2022-05-13T01:27:00,sdl,15.38
2022-05-13T01:28:00,sdl,15.72
2022-05-13T01:29:00,sdl,15.72
2022-05-13T01:30:00,sdl,15.32
2022-05-13T01:31:00,sdl,15.31
2022-05-13T01:32:00,sdl,15.17
2022-05-13T01:33:00,sdl,14.29
2022-05-13T01:34:00,sdl,14.78
2022-05-13T01:35:00,sdl,14.81
2022-05-13T01:36:00,sdl,14.36
2022-05-13T01:37:00,sdl,14.47
2022-05-13T01:38:00,sdl,14.39
2022-05-13T01:39:00,sdl,14.29
2022-05-13T01:40:00,sdl,16.64
2022-05-13T01:41:00,sdl,16.62
2022-05-13T01:42:00,sdl,16.64
2022-05-13T01:43:00,sdl,16.68
2022-05-13T01:44:00,sdl,16.66
2022-05-13T01:45:00,sdl,16.31
2022-05-13T01:46:00,sdl,16.58
2022-05-13T01:47:00,sdl,16.64
2022-05-13T01:48:00,sdl,16.64
2022-05-13T01:49:00,sdl,16.59
2022-05-13T01:50:00,sdl,16.64
2022-05-13T01:51:00,sdl,16.62
2022-05-13T01:52:00,sdl,16.71
2022-05-13T01:53:00,sdl,16.96
2022-05-13T01:54:00,sdl,14.59
2022-05-13T01:55:00,sdl,14.50
2022-05-13T01:56:00,sdl,14.53
2022-05-13T01:57:00,sdl,14.46
2022-05-13T01:58:00,sdl,14.49
2022-05-13T01:59:00,sdl,14.09
2022-05-13T02:00:00,sdl,14.09
2022-05-13T02:01:00,sdl,18.71
2022-05-13T02:02:00,sdl,18.57
2022-05-13T02:03:00,sdl,18.46
2022-05-13T02:04:00,sdl,18.49
2022-05-13T02:05:00,sdl,18.42
2022-05-13T02:06:00,sdl,18.46
2022-05-13T02:07:00,sdl,18.50
2022-05-13T02:08:00,sdl,18.46
2022-05-13T02:09:00,sdl,18.81
2022-05-13T02:10:00,sdl,21.10
2022-05-13T02:11:00,sdl,20.71
2022-05-13T02:12:00,sdl,20.54
2022-05-13T02:13:00,sdl,20.71
2022-05-13T02:14:00,sdl,20.85
2022-05-13T02:15:00,sdl,20.80
2022-05-13T02:16:00,sdl,20.81
2022-05-13T02:17:00,sdl,20.69
2022-05-13T02:18:00,sdl,20.76
2022-05-13T02:19:00,sdl,20.74
2022-05-13T02:20:00,sdl,18.43
2022-05-13T02:21:00,sdl,18.42
2022-05-13T02:22:00,sdl,18.47
2022-05-13T02:23:00,sdl,18.61
2022-05-13T02:24:00,sdl,18.58
2022-05-13T02:25:00,sdl,18.54
2022-05-13T02:26:00,sdl,18.60
2022-05-13T02:27:00,sdl,18.72
2022-05-13T02:28:00,sdl,18.63
2022-05-13T02:29:00,sdl,18.62
2022-05-13T02:30:00,sdl,18.59
2022-05-13T02:31:00,sdl,18.59
2022-05-13T02:32:00,sdl,18.54
2022-05-13T02:33:00,sdl,18.44
2022-05-13T02:34:00,sdl,18.91
2022-05-13T02:35:00,sdl,18.49
2022-05-13T02:36:00,sdl,18.46
2022-05-13T02:37:00,sdl,19.52
2022-05-13T02:38:00,sdl,18.48
2022-05-13T02:39:00,sdl,18.42
2022-05-13T02:40:00,sdl,18.44
2022-05-13T02:41:00,sdl,18.47
2022-05-13T02:42:00,sdl,18.43
2022-05-13T02:43:00,sdl,18.84
2022-05-13T02:44:00,sdl,18.77
2022-05-13T02:45:00,sdl,18.46
2022-05-13T02:46:00,sdl,18.35
2022-05-13T02:47:00,sdl,18.32
2022-05-13T02:48:00,sdl,18.45
2022-05-13T02:49:00,sdl,19.46
2022-05-13T02:50:00,sdl,18.44
2022-05-13T02:51:00,sdl,18.38
2022-05-13T02:52:00,sdl,18.35
2022-05-13T02:53:00,sdl,20.71
2022-05-13T02:54:00,sdl,20.79
2022-05-13T02:55:00,sdl,20.82
2022-05-13T02:56:00,sdl,20.93
2022-05-13T02:57:00,sdl,20.86
2022-05-13T02:58:00,sdl,20.71
2022-05-13T02:59:00,sdl,20.75
2022-05-13T03:00:00,sdl,20.70
2022-05-13T03:01:00,sdl,20.84
2022-05-13T03:02:00,sdl,20.85
2022-05-13T03:03:00,sdl,20.72
2022-05-13T03:04:00,sdl,20.64
2022-05-13T03:05:00,sdl,20.65
2022-05-13T03:06:00,sdl,20.85
2022-05-13T03:07:00,sdl,20.62
2022-05-13T03:08:00,sdl,20.54
2022-05-13T03:09:00,sdl,18.25
2022-05-13T03:10:00,sdl,18.22
2022-05-13T03:11:00,sdl,18.26
2022-05-13T03:12:00,sdl,18.29
2022-05-13T03:13:00,sdl,19.26
2022-05-13T03:14:00,sdl,18.19
2022-05-13T03:15:00,sdl,18.23
2022-05-13T03:16:00,sdl,18.32
2022-05-13T03:17:00,sdl,18.72
2022-05-13T03:18:00,sdl,18.70
2022-05-13T03:19:00,sdl,18.24
2022-05-13T03:20:00,sdl,18.14
2022-05-13T03:21:00,sdl,18.18
2022-05-13T03:22:00,sdl,18.35
2022-05-13T03:23:00,sdl,18.28
2022-05-13T03:24:00,sdl,18.25
2022-05-13T03:25:00,sdl,19.37
2022-05-13T03:26:00,sdl,18.35
2022-05-13T03:27:00,sdl,18.45
2022-05-13T03:28:00,sdl,18.45
2022-05-13T03:29:00,sdl,18.49
2022-05-13T03:30:00,sdl,18.47
2022-05-13T03:31:00,sdl,18.52
2022-05-13T03:32:00,sdl,18.61
2022-05-13T03:33:00,sdl,18.67
2022-05-13T03:34:00,sdl,18.59
2022-05-13T03:35:00,sdl,18.51
2022-05-13T03:36:00,sdl,18.48
2022-05-13T03:37:00,sdl,18.46
2022-05-13T03:38:00,sdl,18.34
2022-05-13T03:39:00,sdl,18.35
2022-05-13T03:40:00,sdl,18.36
2022-05-13T03:41:00,sdl,18.33
2022-05-13T03:42:00,sdl,18.11
2022-05-13T03:43:00,sdl,18.36
2022-05-13T03:44:00,sdl,18.39
2022-05-13T03:45:00,sdl,18.27
2022-05-13T03:46:00,sdl,18.46
2022-05-13T03:47:00,sdl,20.44
2022-05-13T03:48:00,sdl,20.76
2022-05-13T03:49:00,sdl,20.77
2022-05-13T03:50:00,sdl,21.80
2022-05-13T03:51:00,sdl,20.78
2022-05-13T03:52:00,sdl,21.04
2022-05-13T03:53:00,sdl,21.01
2022-05-13T03:54:00,sdl,20.61
2022-05-13T03:55:00,sdl,18.33
2022-05-13T03:56:00,sdl,18.41
2022-05-13T03:57:00,sdl,18.42
2022-05-13T03:58:00,sdl,18.35
2022-05-13T03:59:00,sdl,18.48
2022-05-13T04:00:00,sdl,18.42
2022-05-13T04:01:00,sdl,18.43
2022-05-13T04:02:00,sdl,19.33
2022-05-13T04:03:00,sdl,18.46
2022-05-13T04:04:00,sdl,18.42
2022-05-13T04:05:00,sdl,18.38
2022-05-13T04:06:00,sdl,18.36
2022-05-13T04:07:00,sdl,18.24
2022-05-13T04:08:00,sdl,18.25
2022-05-13T04:09:00,sdl,20.43
2022-05-13T04:10:00,sdl,20.59
2022-05-13T04:11:00,sdl,20.51
2022-05-13T04:12:00,sdl,20.56
2022-05-13T04:13:00,sdl,20.55
2022-05-13T04:14:00,sdl,21.68
2022-05-13T04:15:00,sdl,20.52
2022-05-13T04:16:00,sdl,20.53
2022-05-13T04:17:00,sdl,20.62
2022-05-13T04:18:00,sdl,20.56
2022-05-13T04:19:00,sdl,20.61
2022-05-13T04:20:00,sdl,20.55
2022-05-13T04:21:00,sdl,20.69
2022-05-13T04:22:00,sdl,20.63
2022-05-13T04:23:00,sdl,20.65
2022-05-13T04:24:00,sdl,18.43
2022-05-13T04:25:00,sdl,18.53
2022-05-13T04:26:00,sdl,18.51
2022-05-13T04:27:00,sdl,18.69
2022-05-13T04:28:00,sdl,18.78
2022-05-13T04:29:00,sdl,19.01
2022-05-13T04:30:00,sdl,19.00
2022-05-13T04:31:00,sdl,18.57
2022-05-13T04:32:00,sdl,18.55
2022-05-13T04:33:00,sdl,18.40
2022-05-13T04:34:00,sdl,18.51
2022-05-13T04:35:00,sdl,18.52
2022-05-13T04:36:00,sdl,18.36
2022-05-13T04:37:00,sdl,18.47
2022-05-13T04:38:00,sdl,19.52
2022-05-13T04:39:00,sdl,18.32
2022-05-13T04:40:00,sdl,18.39
2022-05-13T04:41:00,sdl,18.35
2022-05-13T04:42:00,sdl,17.96
2022-05-13T04:43:00,sdl,18.23
2022-05-13T04:44:00,sdl,18.31
2022-05-13T04:45:00,sdl,18.24
2022-05-13T04:46:00,sdl,18.19
2022-05-13T04:47:00,sdl,18.00
2022-05-13T04:48:00,sdl,18.25
2022-05-13T04:49:00,sdl,18.26
2022-05-13T04:50:00,sdl,19.14
2022-05-13T04:51:00,sdl,18.40
2022-05-13T04:52:00,sdl,18.47
2022-05-13T04:53:00,sdl,18.44
2022-05-13T04:54:00,sdl,18.47
2022-05-13T04:55:00,sdl,18.32
2022-05-13T04:56:00,sdl,18.39
2022-05-13T04:57:00,sdl,18.43
2022-05-13T04:58:00,sdl,18.38
2022-05-13T04:59:00,sdl,18.59
2022-05-13T05:00:00,sdl,18.41
2022-05-13T05:01:00,sdl,18.45
2022-05-13T05:02:00,sdl,19.37
2022-05-13T05:03:00,sdl,18.36
2022-05-13T05:04:00,sdl,18.82
2022-05-13T05:05:00,sdl,18.89
2022-05-13T05:06:00,sdl,20.92
2022-05-13T05:07:00,sdl,20.84
2022-05-13T05:08:00,sdl,20.81
2022-05-13T05:09:00,sdl,20.79
2022-05-13T05:10:00,sdl,20.67
2022-05-13T05:11:00,sdl,20.64
2022-05-13T05:12:00,sdl,20.71
2022-05-13T05:13:00,sdl,20.55
2022-05-13T05:14:00,sdl,21.50
2022-05-13T05:15:00,sdl,20.45
2022-05-13T05:16:00,sdl,20.53
2022-05-13T05:17:00,sdl,20.58
2022-05-13T05:18:00,sdl,20.50
2022-05-13T05:19:00,sdl,20.59
2022-05-13T05:20:00,sdl,18.40
2022-05-13T05:21:00,sdl,18.50
2022-05-13T05:22:00,sdl,18.50
2022-05-13T05:23:00,sdl,18.26
2022-05-13T05:24:00,sdl,17.94
2022-05-13T05:25:00,sdl,18.14
2022-05-13T05:26:00,sdl,18.14
2022-05-13T05:27:00,sdl,18.09
2022-05-13T05:28:00,sdl,18.03
2022-05-13T05:29:00,sdl,18.29
2022-05-13T05:30:00,sdl,18.30
2022-05-13T05:31:00,sdl,18.34
2022-05-13T05:32:00,sdl,18.40
2022-05-13T05:33:00,sdl,18.41
2022-05-13T05:34:00,sdl,18.33
2022-05-13T05:35:00,sdl,18.42
2022-05-13T05:36:00,sdl,18.40
2022-05-13T05:37:00,sdl,18.42
2022-05-13T05:38:00,sdl,19.56
2022-05-13T05:39:00,sdl,18.31
2022-05-13T05:40:00,sdl,20.53
2022-05-13T05:41:00,sdl,20.42
2022-05-13T05:42:00,sdl,20.42
2022-05-13T05:43:00,sdl,20.42
2022-05-13T05:44:00,sdl,20.74
2022-05-13T05:45:00,sdl,20.79
2022-05-13T05:46:00,sdl,20.54
2022-05-13T05:47:00,sdl,20.50
2022-05-13T05:48:00,sdl,20.50
2022-05-13T05:49:00,sdl,18.23
2022-05-13T05:50:00,sdl,18.22
2022-05-13T05:51:00,sdl,18.23
2022-05-13T05:52:00,sdl,18.26
2022-05-13T05:53:00,sdl,18.16
2022-05-13T05:54:00,sdl,18.15
2022-05-13T05:55:00,sdl,18.19
2022-05-13T05:56:00,sdl,18.19
2022-05-13T05:57:00,sdl,18.17
2022-05-13T05:58:00,sdl,18.17
2022-05-13T05:59:00,sdl,18.13
2022-05-13T06:00:00,sdl,18.23
2022-05-13T06:01:00,sdl,18.63
2022-05-13T06:02:00,sdl,19.76
2022-05-13T06:03:00,sdl,18.57
2022-05-13T06:04:00,sdl,18.59
2022-05-13T06:05:00,sdl,18.72
2022-05-13T06:06:00,sdl,18.69
2022-05-13T06:07:00,sdl,18.69
2022-05-13T06:08:00,sdl,18.69
2022-05-13T06:09:00,sdl,18.73
2022-05-13T06:10:00,sdl,18.52
2022-05-13T06:11:00,sdl,18.51
2022-05-13T06:12:00,sdl,18.67
2022-05-13T06:13:00,sdl,18.67
2022-05-13T06:14:00,sdl,19.49
2022-05-13T06:15:00,sdl,18.62
2022-05-13T06:16:00,sdl,18.34
2022-05-13T06:17:00,sdl,18.51
2022-05-13T06:18:00,sdl,20.57
2022-05-13T06:19:00,sdl,20.63
2022-05-13T06:20:00,sdl,20.55
2022-05-13T06:21:00,sdl,20.55
2022-05-13T06:22:00,sdl,20.66
2022-05-13T06:23:00,sdl,20.63
2022-05-13T06:24:00,sdl,20.54
2022-05-13T06:25:00,sdl,20.65
2022-05-13T06:26:00,sdl,22.17
2022-05-13T06:27:00,sdl,21.17
2022-05-13T06:28:00,sdl,20.72
2022-05-13T06:29:00,sdl,20.68
2022-05-13T06:30:00,sdl,20.66
2022-05-13T06:31:00,sdl,20.56
2022-05-13T06:32:00,sdl,20.58
2022-05-13T06:33:00,sdl,20.54
2022-05-13T06:34:00,sdl,18.36
2022-05-13T06:35:00,sdl,18.47
2022-05-13T06:36:00,sdl,18.38
2022-05-13T06:37:00,sdl,18.50
2022-05-13T06:38:00,sdl,18.41
2022-05-13T06:39:00,sdl,18.38
2022-05-13T06:40:00,sdl,18.58
2022-05-13T06:41:00,sdl,18.40
2022-05-13T06:42:00,sdl,18.43
2022-05-13T06:43:00,sdl,18.44
2022-05-13T06:44:00,sdl,18.64
2022-05-13T06:45:00,sdl,18.61
2022-05-13T06:46:00,sdl,18.29
2022-05-13T06:47:00,sdl,18.39
2022-05-13T06:48:00,sdl,18.36
2022-05-13T06:49:00,sdl,18.43
2022-05-13T06:50:00,sdl,18.40
2022-05-13T06:51:00,sdl,18.44
2022-05-13T06:52:00,sdl,18.33
2022-05-13T06:53:00,sdl,18.21
2022-05-13T06:54:00,sdl,18.34
2022-05-13T06:55:00,sdl,18.25
2022-05-13T06:56:00,sdl,18.30
2022-05-13T06:57:00,sdl,18.39
2022-05-13T06:58:00,sdl,18.30
2022-05-13T06:59:00,sdl,18.20
2022-05-13T07:00:00,sdl,18.06
2022-05-13T07:01:00,sdl,18.29
2022-05-13T07:02:00,sdl,18.55
2022-05-13T07:03:00,sdl,18.64
2022-05-13T07:04:00,sdl,18.38
2022-05-13T07:05:00,sdl,18.39
2022-05-13T07:06:00,sdl,18.49
2022-05-13T07:07:00,sdl,18.38
2022-05-13T07:08:00,sdl,18.40
2022-05-13T07:09:00,sdl,18.40
2022-05-13T07:10:00,sdl,18.44
2022-05-13T07:11:00,sdl,18.47
2022-05-13T07:12:00,sdl,18.22
2022-05-13T07:13:00,sdl,18.31
2022-05-13T07:14:00,sdl,18.24
2022-05-13T07:15:00,sdl,18.29
2022-05-13T07:16:00,sdl,18.22
2022-05-13T07:17:00,sdl,20.53
2022-05-13T07:18:00,sdl,20.53
2022-05-13T07:19:00,sdl,20.37
2022-05-13T07:20:00,sdl,20.34
2022-05-13T07:21:00,sdl,20.39
2022-05-13T07:22:00,sdl,20.57
2022-05-13T07:23:00,sdl,20.58
2022-05-13T07:24:00,sdl,20.51
2022-05-13T07:25:00,sdl,20.65
2022-05-13T07:26:00,sdl,20.46
2022-05-13T07:27:00,sdl,20.60
2022-05-13T07:28:00,sdl,20.65
2022-05-13T07:29:00,sdl,20.46
2022-05-13T07:30:00,sdl,20.37
2022-05-13T07:31:00,sdl,18.25
2022-05-13T07:32:00,sdl,18.44
2022-05-13T07:33:00,sdl,18.39
2022-05-13T07:34:00,sdl,18.50
2022-05-13T07:35:00,sdl,18.93
2022-05-13T07:36:00,sdl,18.79
2022-05-13T07:37:00,sdl,19.53
2022-05-13T07:38:00,sdl,18.31
2022-05-13T07:39:00,sdl,18.40
2022-05-13T07:40:00,sdl,18.56
2022-05-13T07:41:00,sdl,19.11
2022-05-13T07:42:00,sdl,19.11
2022-05-13T07:43:00,sdl,19.16
2022-05-13T07:44:00,sdl,19.01
2022-05-13T07:45:00,sdl,21.34
2022-05-13T07:46:00,sdl,21.32
2022-05-13T07:47:00,sdl,21.40
2022-05-13T07:48:00,sdl,21.57
2022-05-13T07:49:00,sdl,21.48
2022-05-13T07:50:00,sdl,21.55
2022-05-13T07:51:00,sdl,22.49
2022-05-13T07:52:00,sdl,21.35
2022-05-13T07:53:00,sdl,21.35
2022-05-13T07:54:00,sdl,21.43
2022-05-13T07:55:00,sdl,21.33
2022-05-13T07:56:00,sdl,19.09
2022-05-13T07:57:00,sdl,19.30
2022-05-13T07:58:00,sdl,19.10
2022-05-13T07:59:00,sdl,19.27
2022-05-13T08:00:00,sdl,20.35
2022-05-13T08:01:00,sdl,20.77
2022-05-13T08:02:00,sdl,19.25
2022-05-13T08:03:00,sdl,18.88
2022-05-13T08:04:00,sdl,19.13
2022-05-13T08:05:00,sdl,19.26
2022-05-13T08:06:00,sdl,19.28
2022-05-13T08:07:00,sdl,19.11
2022-05-13T08:08:00,sdl,18.90
2022-05-13T08:09:00,sdl,19.10
2022-05-13T08:10:00,sdl,19.60
2022-05-13T08:11:00,sdl,19.65
2022-05-13T08:12:00,sdl,19.14
2022-05-13T08:13:00,sdl,19.24
2022-05-13T08:14:00,sdl,19.17
2022-05-13T08:15:00,sdl,19.19
2022-05-13T08:16:00,sdl,19.15
2022-05-13T08:17:00,sdl,19.09
2022-05-13T08:18:00,sdl,19.08
2022-05-13T08:19:00,sdl,18.89
2022-05-13T08:20:00,sdl,18.97
2022-05-13T08:21:00,sdl,18.80
2022-05-13T08:22:00,sdl,18.57
2022-05-13T08:23:00,sdl,18.67
2022-05-13T08:24:00,sdl,18.79
2022-05-13T08:25:00,sdl,19.52
2022-05-13T08:26:00,sdl,20.70
2022-05-13T08:27:00,sdl,19.66
2022-05-13T08:28:00,sdl,19.59
2022-05-13T08:29:00,sdl,20.29
2022-05-13T08:30:00,sdl,20.42
2022-05-13T08:31:00,sdl,20.31
2022-05-13T08:32:00,sdl,22.42
2022-05-13T08:33:00,sdl,21.86
2022-05-13T08:34:00,sdl,21.77
2022-05-13T08:35:00,sdl,21.76
2022-05-13T08:36:00,sdl,21.91
2022-05-13T08:37:00,sdl,22.73
2022-05-13T08:38:00,sdl,21.83
2022-05-13T08:39:00,sdl,22.01
2022-05-13T08:40:00,sdl,21.95
2022-05-13T08:41:00,sdl,22.09
2022-05-13T08:42:00,sdl,22.34
2022-05-13T08:43:00,sdl,22.49
2022-05-13T08:44:00,sdl,22.15
2022-05-13T08:45:00,sdl,22.01
2022-05-13T08:46:00,sdl,21.91
2022-05-13T08:47:00,sdl,19.62
2022-05-13T08:48:00,sdl,19.64
2022-05-13T08:49:00,sdl,19.70
2022-05-13T08:50:00,sdl,20.36
2022-05-13T08:51:00,sdl,19.68
2022-05-13T08:52:00,sdl,20.23
2022-05-13T08:53:00,sdl,19.67
2022-05-13T08:54:00,sdl,19.63
2022-05-13T08:55:00,sdl,19.69
2022-05-13T08:56:00,sdl,19.50
2022-05-13T08:57:00,sdl,20.34
2022-05-13T08:58:00,sdl,20.32
2022-05-13T08:59:00,sdl,20.35
2022-05-13T09:00:00,sdl,21.73
2022-05-13T09:01:00,sdl,21.85
2022-05-13T09:02:00,sdl,22.38
2022-05-13T09:03:00,sdl,22.65
2022-05-13T09:04:00,sdl,22.94
2022-05-13T09:05:00,sdl,22.71
2022-05-13T09:06:00,sdl,23.39
2022-05-13T09:07:00,sdl,22.80
2022-05-13T09:08:00,sdl,22.69
2022-05-13T09:09:00,sdl,22.33
2022-05-13T09:10:00,sdl,22.28
2022-05-13T09:11:00,sdl,21.83
2022-05-13T09:12:00,sdl,21.95
2022-05-13T09:13:00,sdl,22.58
2022-05-13T09:14:00,sdl,22.57
2022-05-13T09:15:00,sdl,23.79
2022-05-13T09:16:00,sdl,24.89
2022-05-13T09:17:00,sdl,24.88
2022-05-13T09:18:00,sdl,24.67
2022-05-13T09:19:00,sdl,24.73
2022-05-13T09:20:00,sdl,24.37
2022-05-13T09:21:00,sdl,24.85
2022-05-13T09:22:00,sdl,24.72
2022-05-13T09:23:00,sdl,24.84
2022-05-13T09:24:00,sdl,24.87
2022-05-13T09:25:00,sdl,22.38
2022-05-13T09:26:00,sdl,22.22
2022-05-13T09:27:00,sdl,22.16
2022-05-13T09:28:00,sdl,22.14
2022-05-13T09:29:00,sdl,22.11
2022-05-13T09:30:00,sdl,23.11
2022-05-13T09:31:00,sdl,23.39
2022-05-13T09:32:00,sdl,22.38
2022-05-13T09:33:00,sdl,22.24
2022-05-13T09:34:00,sdl,22.37
2022-05-13T09:35:00,sdl,22.44
2022-05-13T09:36:00,sdl,22.18
2022-05-13T09:37:00,sdl,22.28
2022-05-13T09:38:00,sdl,22.27
2022-05-13T09:39:00,sdl,22.25
2022-05-13T09:40:00,sdl,21.93
2022-05-13T09:41:00,sdl,22.67
2022-05-13T09:42:00,sdl,23.85
2022-05-13T09:43:00,sdl,22.64
2022-05-13T09:44:00,sdl,24.67
2022-05-13T09:45:00,sdl,24.80
2022-05-13T09:46:00,sdl,24.81
2022-05-13T09:47:00,sdl,25.26
2022-05-13T09:48:00,sdl,24.91
2022-05-13T09:49:00,sdl,24.96
2022-05-13T09:50:00,sdl,24.63
2022-05-13T09:51:00,sdl,24.51
2022-05-13T09:52:00,sdl,24.68
2022-05-13T09:53:00,sdl,24.45
2022-05-13T09:54:00,sdl,24.51
2022-05-13T09:55:00,sdl,24.43
2022-05-13T09:56:00,sdl,24.43
2022-05-13T09:57:00,sdl,24.50
2022-05-13T09:58:00,sdl,24.37
2022-05-13T09:59:00,sdl,24.46
2022-05-13T10:00:00,sdl,24.48
2022-05-13T10:01:00,sdl,22.20
2022-05-13T10:02:00,sdl,22.23
2022-05-13T10:03:00,sdl,22.24
2022-05-13T10:04:00,sdl,21.92
2022-05-13T10:05:00,sdl,22.04
2022-05-13T10:06:00,sdl,22.15
2022-05-13T10:07:00,sdl,21.84
2022-05-13T10:08:00,sdl,22.51
2022-05-13T10:09:00,sdl,22.04
2022-05-13T10:10:00,sdl,22.84
2022-05-13T10:11:00,sdl,22.23
2022-05-13T10:12:00,sdl,22.35
2022-05-13T10:13:00,sdl,21.99
2022-05-13T10:14:00,sdl,22.01
2022-05-13T10:15:00,sdl,21.91
2022-05-13T10:16:00,sdl,21.98
2022-05-13T10:17:00,sdl,22.04
2022-05-13T10:18:00,sdl,22.25
2022-05-13T10:19:00,sdl,21.71
2022-05-13T10:20:00,sdl,21.71
2022-05-13T10:21:00,sdl,21.61
2022-05-13T10:22:00,sdl,21.68
2022-05-13T10:23:00,sdl,21.61
2022-05-13T10:24:00,sdl,21.80
2022-05-13T10:25:00,sdl,21.49
2022-05-13T10:26:00,sdl,21.92
2022-05-13T10:27:00,sdl,21.91
2022-05-13T10:28:00,sdl,21.62
2022-05-13T10:29:00,sdl,22.05
2022-05-13T10:30:00,sdl,22.01
2022-05-13T10:31:00,sdl,21.91
2022-05-13T10:32:00,sdl,21.58
2022-05-13T10:33:00,sdl,21.71
2022-05-13T10:34:00,sdl,22.89
2022-05-13T10:35:00,sdl,21.83
2022-05-13T10:36:00,sdl,21.87
2022-05-13T10:37:00,sdl,22.36
2022-05-13T10:38:00,sdl,21.83
2022-05-13T10:39:00,sdl,22.37
2022-05-13T10:40:00,sdl,22.33
2022-05-13T10:41:00,sdl,22.77
2022-05-13T10:42:00,sdl,22.83
2022-05-13T10:43:00,sdl,23.37
2022-05-13T10:44:00,sdl,23.68
2022-05-13T10:45:00,sdl,24.00
2022-05-13T10:46:00,sdl,24.53
2022-05-13T10:47:00,sdl,28.47
2022-05-13T10:48:00,sdl,30.23
2022-05-13T10:49:00,sdl,30.39
2022-05-13T10:50:00,sdl,30.42
2022-05-13T10:51:00,sdl,30.20
2022-05-13T10:52:00,sdl,30.29
2022-05-13T10:53:00,sdl,30.16
2022-05-13T10:54:00,sdl,30.05
2022-05-13T10:55:00,sdl,30.09
2022-05-13T10:56:00,sdl,30.38
2022-05-13T10:57:00,sdl,30.61
2022-05-13T10:58:00,sdl,30.56
2022-05-13T10:59:00,sdl,30.57
2022-05-13T11:00:00,sdl,30.56
2022-05-13T11:01:00,sdl,30.44
2022-05-13T11:02:00,sdl,30.46
2022-05-13T11:03:00,sdl,30.46
2022-05-13T11:04:00,sdl,30.52
2022-05-13T11:05:00,sdl,30.63
2022-05-13T11:06:00,sdl,28.42
2022-05-13T11:07:00,sdl,28.49
2022-05-13T11:08:00,sdl,28.59
2022-05-13T11:09:00,sdl,29.09
2022-05-13T11:10:00,sdl,29.49
2022-05-13T11:11:00,sdl,29.14
2022-05-13T11:12:00,sdl,29.17
2022-05-13T11:13:00,sdl,29.36
2022-05-13T11:14:00,sdl,29.00
2022-05-13T11:15:00,sdl,29.42
2022-05-13T11:16:00,sdl,29.38
2022-05-13T11:17:00,sdl,29.65
2022-05-13T11:18:00,sdl,29.29
2022-05-13T11:19:00,sdl,29.47
2022-05-13T11:20:00,sdl,28.26
2022-05-13T11:21:00,sdl,28.82
2022-05-13T11:22:00,sdl,28.80
2022-05-13T11:23:00,sdl,28.62
2022-05-13T11:24:00,sdl,28.73
2022-05-13T11:25:00,sdl,28.72
2022-05-13T11:26:00,sdl,28.86
2022-05-13T11:27:00,sdl,28.85
2022-05-13T11:28:00,sdl,28.70
2022-05-13T11:29:00,sdl,30.11
2022-05-13T11:30:00,sdl,29.96
2022-05-13T11:31:00,sdl,30.03
2022-05-13T11:32:00,sdl,28.75
2022-05-13T11:33:00,sdl,24.28
2022-05-13T11:34:00,sdl,23.80
2022-05-13T11:35:00,sdl,24.51
2022-05-13T11:36:00,sdl,24.81
2022-05-13T11:37:00,sdl,25.32
2022-05-13T11:38:00,sdl,25.37
2022-05-13T11:39:00,sdl,25.61
2022-05-13T11:40:00,sdl,23.82
2022-05-13T11:41:00,sdl,19.03
2022-05-13T11:42:00,sdl,20.55
2022-05-13T11:43:00,sdl,24.84
2022-05-13T11:44:00,sdl,27.28
2022-05-13T11:45:00,sdl,27.63
2022-05-13T11:46:00,sdl,37.91
2022-05-13T11:47:00,sdl,40.02
2022-05-13T11:48:00,sdl,39.11
2022-05-13T11:49:00,sdl,40.29
2022-05-13T11:50:00,sdl,40.69
2022-05-13T11:51:00,sdl,40.74
2022-05-13T11:52:00,sdl,40.61
2022-05-13T11:53:00,sdl,40.00
2022-05-13T11:54:00,sdl,41.07
2022-05-13T11:55:00,sdl,39.78
2022-05-13T11:56:00,sdl,36.83
2022-05-13T11:57:00,sdl,36.73
2022-05-13T11:58:00,sdl,34.75
2022-05-13T11:59:00,sdl,35.11
2022-05-13T12:00:00,sdl,35.64
2022-05-13T12:01:00,sdl,35.88
2022-05-13T12:02:00,sdl,35.85
2022-05-13T12:03:00,sdl,36.07
2022-05-13T12:04:00,sdl,36.11
2022-05-13T12:05:00,sdl,36.26
2022-05-13T12:06:00,sdl,37.35
2022-05-13T12:07:00,sdl,37.64
2022-05-13T12:08:00,sdl,38.90
2022-05-13T12:09:00,sdl,39.57
2022-05-13T12:10:00,sdl,40.91
2022-05-13T12:11:00,sdl,40.80
2022-05-13T12:12:00,sdl,40.29
2022-05-13T12:13:00,sdl,39.83
2022-05-13T12:14:00,sdl,37.38
2022-05-13T12:15:00,sdl,37.39
2022-05-13T12:16:00,sdl,36.95
2022-05-13T12:17:00,sdl,36.40
2022-05-13T12:18:00,sdl,36.46
2022-05-13T12:19:00,sdl,37.52
2022-05-13T12:20:00,sdl,38.12
2022-05-13T12:21:00,sdl,38.20
2022-05-13T12:22:00,sdl,37.19
2022-05-13T12:23:00,sdl,40.71
2022-05-13T12:24:00,sdl,40.69
2022-05-13T12:25:00,sdl,40.40
2022-05-13T12:26:00,sdl,39.79
2022-05-13T12:27:00,sdl,37.91
2022-05-13T12:28:00,sdl,37.21
2022-05-13T12:29:00,sdl,33.66
2022-05-13T12:30:00,sdl,33.66
2022-05-13T12:31:00,sdl,34.15
2022-05-13T12:32:00,sdl,34.33
2022-05-13T12:33:00,sdl,34.41
2022-05-13T12:34:00,sdl,34.52
2022-05-13T12:35:00,sdl,34.66
2022-05-13T12:36:00,sdl,34.77
2022-05-13T12:37:00,sdl,26.18
2022-05-13T12:38:00,sdl,30.11
2022-05-13T12:39:00,sdl,28.54
2022-05-13T12:40:00,sdl,28.24
2022-05-13T12:41:00,sdl,27.84
2022-05-13T12:42:00,sdl,24.41
2022-05-13T12:43:00,sdl,24.56
2022-05-13T12:44:00,sdl,24.40
2022-05-13T12:45:00,sdl,24.22
2022-05-13T12:46:00,sdl,23.62
2022-05-13T12:47:00,sdl,22.35
2022-05-13T12:48:00,sdl,23.03
2022-05-13T12:49:00,sdl,22.27
2022-05-13T12:50:00,sdl,22.30
2022-05-13T12:51:00,sdl,22.38
2022-05-13T12:52:00,sdl,22.29
2022-05-13T12:53:00,sdl,22.43
2022-05-13T12:54:00,sdl,22.45
2022-05-13T12:55:00,sdl,22.70
2022-05-13T12:56:00,sdl,25.04
2022-05-13T12:57:00,sdl,25.21
2022-05-13T12:58:00,sdl,25.15
2022-05-13T12:59:00,sdl,25.70
2022-05-13T13:00:00,sdl,25.92
2022-05-13T13:01:00,sdl,24.44
2022-05-13T13:02:00,sdl,25.38
2022-05-13T13:03:00,sdl,25.62
2022-05-13T13:04:00,sdl,25.61
2022-05-13T13:05:00,sdl,25.70
2022-05-13T13:06:00,sdl,23.73
2022-05-13T13:07:00,sdl,23.65
2022-05-13T13:08:00,sdl,18.90
2022-05-13T13:09:00,sdl,18.39
2022-05-13T13:10:00,sdl,19.00
2022-05-13T13:11:00,sdl,23.59
2022-05-13T13:12:00,sdl,23.79
2022-05-13T13:13:00,sdl,24.29
2022-05-13T13:14:00,sdl,24.69
2022-05-13T13:15:00,sdl,24.38
2022-05-13T13:16:00,sdl,22.47
2022-05-13T13:17:00,sdl,23.03
2022-05-13T13:18:00,sdl,23.95